Dewpoint
70 73 74 75 75 75 75 75 75 75 75 75 75 75 74 75 74 74 74 74 73 73 73 73 73 73 73 73 73 73 72 72 72 72 72 71 71 71 70 70 70 70 70 70 70 70 70 70 69 69 70 70 71 71 70 70 70 69 69 68 68 68 68 67 67 67 67 67 67 68 68 67 67 66 66 66 65 65 65 65 65 64 64 64 65
70 74 74 75 75 75 75 75 75 75 75 75 75 75 75 74 74 74 74 74 74 74 73 73 73 73 73 73 72 72 72 72 71 71 71 71 71 71 71 70 70 70 70 70 70 69 69 69 69 69 69 69 70 70 70 70 69 68 68 68 68 68 68 69 69 69 69 69 68 68 68 67 67 67 67 66 66 65 65 65 65 64 63 64 64
73 74 74 75 75 75 75 75 75 75 75 75 75 74 74 74 74 74 74 74 74 74 73 73 73 73 73 72 72 72 72 72 72 71 70 71 71 71 71 71 70 70 70 70 69 69 69 68 68 68 68 68 68 69 69 69 69 69 68 68 68 67 69 69 69 68 67 67 67 67 67 67 66 65 65 65 65 65 65 65 65 65 63 65 65
73 73 74 74 75 75 75 75 75 75 75 75 75 74 74 74 74 74 74 74 74 74 74 73 73 73 73 72 72 72 72 71 71 71 71 71 71 71 71 70 70 70 70 70 70 69 68 68 68 67 67 68 68 68 69 69 69 69 68 68 68 68 68 68 68 67 67 67 67 66 66 63 64 65 66 65 65 64 65 65 65 65 65 65 65
72 73 74 74 74 74 75 75 75 75 75 75 75 74 75 74 74 74 74 74 74 74 74 74 73 73 73 72 72 72 72 71 71 71 71 71 71 70 69 69 69 69 69 70 70 69 68 67 67 67 67 67 68 68 68 69 69 68 68 68 68 68 67 67 67 67 66 66 66 65 62 62 62 64 65 65 65 65 64 64 64 64 64 65 65
72 73 74 73 73 74 75 75 75 74 75 75 74 75 74 74 74 74 74 74 74 74 74 74 74 73 73 72 72 72 72 72 72 71 71 72 71 69 69 69 69 69 68 69 69 69 68 67 67 67 67 67 68 68 68 69 68 68 68 68 67 67 67 66 66 66 66 65 66 63 61 62 62 63 65 65 65 65 64 64 64 64 64 64 64
72 73 74 74 74 74 75 75 75 75 75 75 75 74 74 74 74 74 74 74 74 74 74 74 73 73 73 73 72 72 72 72 72 71 72 71 68 69 69 69 68 69 68 69 69 69 68 67 66 67 67 67 67 68 68 69 68 68 68 67 67 66 66 66 66 66 66 64 61 61 61 63 63 63 65 65 65 65 65 65 64 64 64 64 64
73 73 73 73 74 73 75 75 75 74 74 74 74 73 74 74 74 74 74 74 74 73 74 74 73 73 72 72 72 72 72 72 72 71 71 70 70 69 69 68 68 69 69 69 70 69 68 67 66 66 66 67 67 68 68 68 69 69 67 67 66 66 66 66 65 65 64 60 60 61 60 60 62 62 65 65 65 66 65 65 64 64 64 64 64
72 72 73 73 73 74 74 74 74 74 74 74 74 74 74 74 74 74 74 74 74 74 73 73 73 73 73 72 72 71 71 71 71 72 70 70 70 69 69 70 70 68 68 70 70 69 69 68 66 66 66 66 67 67 68 68 69 69 69 68 68 68 67 65 65 65 63 62 61 61 61 62 61 62 64 65 65 65 64 64 65 64 64 63 63
72 72 73 73 73 74 74 74 74 74 74 74 74 74 74 74 74 73 73 73 73 73 73 73 73 73 73 72 72 71 71 71 71 71 70 70 70 70 69 69 69 69 69 69 69 69 69 68 67 66 66 67 67 67 67 68 68 68 68 68 67 66 67 65 64 64 61 61 61 62 63 66 62 62 64 64 64 64 64 63 65 63 63 63 64
72 72 73 72 73 74 74 74 74 74 74 74 74 74 73 74 74 74 74 74 73 73 74 73 73 73 73 72 71 71 71 71 71 71 71 71 71 70 70 69 69 69 69 69 69 69 69 68 68 68 68 68 68 68 67 68 68 68 67 67 68 67 66 67 64 61 61 60 61 64 65 66 62 62 65 65 65 64 64 64 64 64 64 63 63
71 72 73 72 73 74 74 74 74 74 74 74 74 74 73 74 73 73 74 74 73 74 74 74 73 73 73 72 72 71 71 71 71 71 70 70 71 70 70 70 69 69 69 69 70 70 69 69 69 69 69 69 68 68 68 68 68 68 68 68 67 67 68 68 66 62 60 61 63 63 64 62 62 63 64 65 64 64 64 64 64 63 63 63 63
71 72 71 72 73 74 74 74 74 74 74 74 74 74 73 73 73 73 73 73 73 73 73 73 73 73 73 72 72 71 71 72 72 70 71 71 71 70 70 70 69 69 69 70 70 70 70 69 69 70 69 69 69 69 69 68 68 67 67 68 68 67 68 68 63 61 61 62 64 62 61 61 62 65 64 64 65 64 64 64 63 63 63 63 63
71 71 72 72 72 73 73 74 74 74 74 74 73 73 73 73 73 73 73 73 73 73 73 73 73 73 73 72 72 71 72 72 72 71 70 71 71 71 70 70 70 70 70 70 70 69 69 70 70 70 70 69 69 69 69 69 68 68 67 67 67 67 67 66 64 61 62 62 62 60 61 63 62 65 64 65 64 64 64 63 63 63 63 62 62
70 71 72 72 72 73 73 74 74 74 74 74 74 73 73 73 73 72 73 73 73 73 73 73 73 72 72 72 72 71 72 72 72 71 71 71 72 71 70 70 70 70 70 70 70 70 69 69 69 70 70 69 69 69 68 68 68 68 68 66 67 67 65 61 60 60 61 62 62 63 61 62 66 66 64 64 64 63 63 63 63 63 62 62 62
70 71 71 71 71 72 72 73 73 73 74 74 74 73 73 73 73 72 73 73 73 73 73 73 72 73 72 72 72 72 72 72 72 72 71 72 72 71 71 70 70 70 70 70 70 70 69 69 70 70 69 69 69 69 68 68 68 68 67 66 66 68 65 63 60 60 61 61 62 63 61 63 65 65 64 64 63 63 63 62 62 62 62 62 62
70 70 70 70 71 71 72 72 73 73 73 73 73 73 73 72 73 72 73 72 72 72 72 72 73 72 72 72 71 72 72 71 71 72 71 71 70 71 70 69 70 69 69 70 70 70 69 70 70 70 69 69 69 69 68 68 68 67 67 67 67 68 67 64 60 61 61 62 62 62 61 63 64 65 64 63 63 63 62 63 63 62 62 62 61
70 70 70 70 70 71 71 71 71 71 71 73 73 73 73 72 73 72 72 72 72 72 72 71 71 72 72 72 72 72 72 72 72 72 71 71 71 71 70 70 70 69 70 70 70 70 70 70 70 69 69 69 69 68 68 68 68 67 68 68 67 65 67 64 61 61 61 64 61 63 63 66 65 64 64 63 63 62 62 62 62 62 62 61 61
69 69 69 69 70 70 71 70 70 70 70 70 72 73 73 73 73 73 72 71 71 72 71 70 71 71 72 72 72 71 72 72 72 71 72 71 72 71 71 71 70 70 70 70 70 70 70 69 69 69 69 69 69 68 68 68 68 68 67 67 65 66 66 64 61 60 62 62 62 62 62 66 65 64 64 64 63 62 62 61 61 61 61 61 61
69 69 69 69 69 69 69 69 69 69 69 70 72 72 72 73 72 72 72 72 71 72 72 71 71 70 71 72 71 71 71 71 71 71 71 71 71 70 71 70 69 70 70 70 70 70 70 69 69 69 69 69 69 68 68 68 68 67 68 66 65 66 63 60 60 60 62 61 63 62 65 66 64 64 64 64 62 62 61 61 61 61 61 61 61
68 68 67 68 68 68 68 68 68 68 69 70 71 71 72 72 72 72 72 72 71 71 71 71 72 71 70 71 70 69 69 69 69 70 70 70 70 71 71 70 69 69 69 70 70 70 70 69 69 69 69 69 69 68 68 68 68 67 67 66 65 61 61 60 60 62 61 63 64 62 66 65 64 65 64 63 63 62 62 61 61 61 61 61 61
67 67 66 67 67 67 68 68 68 68 68 70 70 70 70 71 70 70 71 71 71 71 71 70 72 68 70 70 69 70 69 67 69 70 70 70 71 71 71 70 69 69 70 70 70 70 70 69 69 69 69 69 69 63 63 66 67 67 66 66 62 60 61 61 61 61 62 62 64 63 66 65 65 65 65 64 63 63 62 61 61 61 61 61 61
64 64 65 66 66 67 68 68 68 68 68 69 70 70 70 70 70 70 71 71 71 70 69 71 69 69 69 69 69 69 68 68 68 70 69 71 70 71 71 69 69 69 70 70 70 70 69 69 69 69 69 69 65 61 59 59 62 66 65 62 60 61 60 61 60 61 62 62 62 65 66 65 65 65 65 64 64 63 62 62 61 60 61 61 60
62 64 65 66 66 67 67 68 69 68 68 68 69 69 69 70 70 70 70 69 69 70 68 69 68 69 68 68 68 68 68 68 71 69 69 70 70 71 70 68 68 70 70 69 70 70 70 69 69 69 69 67 62 62 61 60 60 61 61 61 61 61 60 60 61 61 61 63 62 65 67 66 65 65 65 64 64 63 62 62 61 61 60 60 61
59 60 64 65 65 66 66 67 68 67 67 68 69 68 68 69 69 70 69 67 68 68 68 67 68 68 68 68 68 68 67 67 67 68 67 68 67 68 68 68 68 67 69 66 67 68 68 67 67 67 64 63 62 61 61 60 59 61 61 61 61 61 60 61 61 61 61 63 62 66 67 67 66 65 65 65 64 64 63 62 61 60 60 61 60
55 59 61 61 62 66 66 66 67 66 67 69 68 68 69 68 68 68 67 66 67 67 67 66 66 67 67 68 67 65 66 67 65 65 67 67 67 67 67 67 67 67 68 66 66 66 65 67 67 66 63 62 62 62 61 62 59 59 60 61 61 60 59 60 61 61 62 62 63 66 67 67 66 65 65 65 64 64 63 62 61 61 61 60 60
51 51 52 55 55 61 64 65 65 65 66 68 68 68 68 67 68 67 66 65 66 66 65 64 64 65 67 68 66 64 65 65 65 65 66 66 67 67 67 67 67 67 66 66 65 65 65 65 65 64 61 61 63 62 61 61 59 60 60 61 61 61 60 60 60 61 62 62 64 67 67 67 67 66 65 65 64 64 63 63 62 61 61 60 60
49 50 52 54 57 55 58 64 64 65 65 67 67 67 67 67 66 67 66 68 67 65 65 64 65 65 66 67 68 65 65 64 64 65 65 65 66 66 66 67 67 67 66 65 65 64 63 63 62 61 61 61 62 62 61 61 59 59 60 60 60 59 59 59 60 60 61 62 63 67 67 67 67 67 66 65 65 65 64 63 63 62 61 60 60
48 50 52 52 53 55 57 60 64 65 65 66 66 66 67 67 67 67 66 68 65 65 65 65 64 65 65 66 68 65 64 64 64 65 65 66 65 65 65 66 67 67 66 65 65 64 63 62 61 60 59 60 59 60 60 59 58 58 59 60 60 59 59 59 59 60 61 62 63 65 67 67 67 67 66 65 65 65 64 64 63 62 61 60 60
48 50 50 50 51 53 57 60 63 65 65 65 65 65 66 66 66 66 66 68 64 65 65 64 64 64 65 65 66 65 65 65 64 64 64 65 65 65 64 65 64 64 66 65 64 64 63 61 61 61 60 59 59 59 59 59 58 58 59 60 60 60 61 59 59 60 61 62 63 64 67 67 66 66 67 66 65 65 65 64 63 63 62 61 61
51 51 52 52 55 53 55 59 62 64 63 63 63 64 65 65 66 66 66 65 66 66 65 64 64 64 64 65 65 65 65 64 64 64 64 64 65 65 65 65 64 64 65 64 65 63 63 63 62 61 61 60 59 59 59 59 58 58 58 59 60 60 60 60 59 60 61 62 62 63 65 67 66 66 66 66 66 65 65 64 64 63 62 62 62
49 50 50 51 51 51 52 54 55 58 60 62 64 63 63 64 65 64 64 64 66 64 65 65 66 64 65 64 64 65 65 64 64 64 64 64 64 65 65 64 65 65 65 65 65 65 64 63 62 62 61 61 60 60 59 59 59 58 58 58 59 60 60 60 59 60 60 61 62 63 64 65 67 65 66 65 66 66 65 65 64 63 63 62 61
49 50 51 50 49 50 51 52 51 52 54 57 60 59 60 62 62 62 64 65 65 64 64 65 65 64 64 64 64 65 65 64 63 63 65 64 65 65 64 65 65 65 64 64 65 65 65 63 63 63 61 61 60 60 60 59 59 58 58 58 59 59 59 59 59 59 60 61 62 62 63 64 65 66 65 66 65 66 66 65 64 64 63 63 63
50 50 50 51 53 53 54 53 51 50 52 54 55 55 54 53 55 54 62 63 63 63 65 65 65 64 64 65 64 64 64 63 64 64 64 63 64 65 65 65 64 65 64 64 64 64 64 64 63 62 64 61 60 61 61 60 59 58 57 57 59 59 58 59 59 59 59 60 61 62 63 63 64 64 64 66 66 65 65 66 65 65 64 63 63
51 49 49 52 53 53 53 53 54 52 52 52 51 51 51 52 51 53 57 60 59 61 60 61 63 64 65 65 65 64 64 64 65 65 65 64 64 65 65 65 66 65 64 64 64 64 64 64 64 63 62 61 61 61 61 61 60 59 57 56 56 57 57 58 59 59 59 59 61 61 62 63 63 63 63 63 66 65 65 65 66 65 64 64 63
48 49 51 52 53 53 53 51 50 49 50 51 51 52 52 52 53 55 52 53 53 52 54 56 63 63 65 66 65 64 64 63 64 65 64 64 64 64 65 65 65 66 66 65 64 64 64 64 64 64 63 62 61 61 60 59 59 58 57 56 56 56 56 57 59 58 59 59 60 61 61 62 62 62 64 62 63 64 65 65 65 65 65 64 64
48 50 51 51 51 53 53 49 48 49 51 51 51 50 50 50 50 51 51 52 53 54 56 59 63 62 63 63 62 64 64 63 63 64 65 64 64 64 65 64 64 64 65 66 65 64 63 64 63 64 63 62 62 61 61 60 61 59 57 56 56 56 55 56 58 59 59 59 59 60 61 61 62 64 63 61 62 62 64 65 65 65 65 65 64
50 50 50 50 50 52 49 49 50 50 50 50 50 51 52 52 52 54 57 53 53 54 55 57 57 57 57 58 59 59 60 60 63 64 64 63 64 64 64 64 64 65 65 65 65 64 64 63 63 63 64 63 63 62 61 62 62 61 59 58 57 56 56 55 57 60 59 59 59 60 60 61 61 61 61 61 61 61 62 64 65 64 65 64 64
50 50 50 50 50 50 51 53 50 50 51 53 54 53 52 51 51 51 52 53 53 53 54 55 55 57 57 57 57 58 58 57 59 62 63 64 64 64 63 64 64 64 64 65 64 65 64 63 63 63 64 64 63 63 62 62 62 62 61 60 58 57 57 56 56 58 60 60 59 60 60 60 60 60 60 60 60 60 60 61 63 62 63 64 64
50 50 50 49 49 50 50 51 49 50 52 53 53 51 49 50 49 49 50 52 52 54 53 53 54 56 57 56 56 55 57 57 56 57 58 60 61 63 64 63 63 63 63 63 63 63 63 63 63 63 63 63 64 64 63 63 62 61 60 60 60 60 58 56 55 57 59 60 60 60 59 59 59 59 60 60 60 60 60 60 61 61 61 63 64
50 50 49 49 49 50 52 50 50 51 53 52 51 50 46 46 46 46 48 49 52 51 52 52 53 54 55 55 55 54 54 56 56 56 56 58 57 58 60 64 64 63 63 62 63 63 63 63 63 63 63 62 62 63 64 64 62 60 58 58 58 59 59 59 55 55 57 59 60 60 60 59 59 59 59 59 59 59 60 59 59 60 60 60 63
49 49 48 48 49 51 51 49 50 52 51 52 53 51 47 46 46 46 47 50 50 49 49 50 52 54 54 54 54 53 53 54 55 55 55 55 55 56 59 62 64 63 63 62 63 63 63 62 63 62 63 62 61 63 63 63 61 59 57 57 57 58 58 57 56 55 54 57 59 60 60 60 59 59 59 59 59 59 59 59 59 59 59 59 61
49 48 48 48 50 51 51 51 51 52 51 52 51 50 50 49 47 46 50 49 50 52 49 53 55 52 52 53 53 52 52 53 54 55 54 54 54 55 56 59 62 63 62 61 61 61 61 62 62 62 61 62 62 63 63 63 60 60 59 58 54 54 55 55 56 56 54 54 57 59 60 60 60 60 60 59 59 58 58 59 59 59 59 59 59
49 48 48 48 50 52 51 51 51 52 51 52 53 50 50 48 48 49 50 49 49 54 49 50 50 51 51 51 51 51 52 52 53 54 53 53 53 53 54 55 57 60 60 60 60 61 61 62 62 62 62 60 61 61 63 63 62 60 56 57 55 53 52 54 54 55 56 54 55 56 58 59 60 60 60 60 59 59 58 58 58 59 59 59 59
48 48 48 48 50 51 51 52 52 52 52 54 51 51 52 51 51 51 51 50 50 48 47 46 48 53 50 49 49 51 51 51 52 53 54 52 52 53 54 54 54 55 55 55 55 56 57 59 60 61 61 60 60 61 61 63 63 63 61 57 55 54 53 54 55 54 55 54 54 54 55 56 57 59 60 60 60 60 59 58 58 58 59 59 58
48 48 48 48 50 51 51 52 52 51 52 51 51 51 50 49 49 48 46 47 47 47 46 45 47 48 48 48 51 51 51 50 51 52 54 53 52 52 52 53 53 54 54 53 53 53 54 55 55 57 58 60 61 60 60 61 62 62 62 61 59 57 56 58 56 53 56 56 56 55 54 54 54 55 58 59 60 60 60 59 58 58 58 59 58
47 48 47 48 50 51 51 52 52 52 51 51 51 51 49 48 48 47 47 48 48 47 46 45 47 47 49 48 49 50 51 50 51 50 52 52 50 51 52 53 53 54 54 52 52 52 53 54 54 53 54 56 58 58 58 59 60 60 61 62 61 61 61 58 56 56 55 55 57 56 56 55 54 53 54 55 57 59 60 60 59 58 58 59 59
48 48 47 48 51 51 51 52 52 53 51 51 51 50 48 48 48 47 50 49 49 49 46 46 47 51 47 48 50 49 50 50 49 51 50 53 51 51 51 51 52 54 53 51 51 51 52 52 53 53 54 54 54 55 55 57 57 58 60 60 60 61 62 61 61 58 57 55 57 59 58 57 57 57 55 54 54 56 58 59 59 59 59 58 59
48 48 47 48 51 52 52 52 52 52 51 51 51 49 49 48 48 49 49 49 48 47 48 52 49 52 46 48 47 47 48 49 50 51 50 52 54 50 49 49 50 52 53 51 51 51 51 51 51 51 51 52 53 53 52 53 54 55 57 58 59 60 61 61 61 61 58 56 56 56 56 57 58 58 57 57 55 55 56 57 58 59 59 59 59
48 49 48 49 52 52 52 52 52 52 51 50 51 49 49 50 48 49 49 50 49 48 48 48 48 47 46 47 47 46 47 48 48 49 48 50 51 50 49 48 49 53 53 50 50 50 50 50 50 50 50 50 51 52 52 52 53 54 56 57 57 58 58 60 60 60 59 59 56 56 56 56 56 57 57 57 57 56 54 55 57 58 58 58 58
48 48 48 49 52 53 52 52 52 51 52 50 50 49 50 50 48 50 49 50 48 48 47 45 46 46 46 46 46 46 48 49 49 50 49 48 51 53 50 51 51 53 51 50 49 49 50 49 49 49 49 49 50 50 50 51 51 52 53 54 55 56 56 55 57 58 58 57 57 57 57 57 57 57 58 58 58 57 56 55 55 56 57 58 58